Weather History for Valparaiso, IN

Change the Weather History Date:

Tuesday, June 10, 2014

  Actual Average Record
Temperature  
Mean Temperature 65 °F 68 °F  
Max Temperature 71 °F 78 °F 92 °F (2012)
Min Temperature 59 °F 57 °F 49 °F (2006)
Degree Days  
Heating Degree Days 0 2  
Month to date heating degree days 14 26  
Since 1 June heating degree days 14 26  
Since 1 July heating degree days 7205 6305  
Cooling Degree Days 0 4  
Month to date cooling degree days 33 37  
Year to date cooling degree days 106 84  
Since 1 June cooling degree days 33 37  
Growing Degree Days 14 (Base 50)    
Moisture  
Dew Point 61 °F    
Average Humidity 89    
Maximum Humidity 97    
Minimum Humidity 73    
Precipitation  
Precipitation 0.49 in 0.13 in 1.38 in (2013)
Month to date precipitation 2.01 1.35  
Year to date precipitation 10.94 14.33  
Sea Level Pressure  
Sea Level Pressure 29.84 in    
Wind  
Wind Speed 9 mph (ENE)    
Max Wind Speed 18 mph    
Max Gust Speed 23 mph    
Visibility 7 miles    
Events Rain    
T = Trace of Precipitation, MM = Missing Value Source: NWS Daily Summary

Daily Weather History Graph

Daily Weather History Graph

Search for Another Location

Airport:

Trip Planner

Search our weather history database for the weather conditions in past years. The results will help you decide how hot, cold, wet, or windy it might be!

Date:

Astronomy

Jun. 10, 2014 Rise Set
Actual Time 5:14 AM CDT 8:21 PM CDT
Civil Twilight 4:40 AM CDT 8:54 PM CDT
Nautical Twilight 3:57 AM CDT 9:38 PM CDT
Astronomical Twilight 3:05 AM CDT 10:29 PM CDT
Moon 5:44 PM CDT (6/10) 3:21 AM CDT (6/10)
Length of Visible Light 16h 14m
Length of Day
15h 07m
Waxing Gibbous, 92% of the Moon is Illuminated
Jun 10
Waxing Gibbous
Jun 12
Full
Jun 19
Last Quarter
Jun 27
New
Jul 5
First Quarter

Hourly Weather History & Observations

Time (CDT) Temp. Dew Point Humidity Pressure Visibility Wind Dir Wind Speed Gust Speed Precip Events Conditions
12:53 AM 60.1 °F 55.9 °F 86% 29.92 in 10.0 mi Calm Calm - N/A   Clear
1:53 AM 60.1 °F 55.9 °F 86% 29.92 in 10.0 mi Calm Calm - N/A   Clear
2:53 AM 59.0 °F 55.9 °F 90% 29.91 in 10.0 mi NNE 4.6 mph - N/A   Clear
3:53 AM 59.0 °F 55.9 °F 90% 29.90 in 10.0 mi ENE 3.5 mph - N/A   Clear
4:53 AM 61.0 °F 57.0 °F 87% 29.89 in 10.0 mi NE 3.5 mph - N/A   Clear
5:53 AM 61.0 °F 57.9 °F 90% 29.90 in 10.0 mi NE 4.6 mph - N/A   Clear
6:53 AM 63.0 °F 57.9 °F 84% 29.90 in 10.0 mi East 6.9 mph - N/A   Overcast
7:53 AM 63.0 °F 57.9 °F 84% 29.91 in 10.0 mi East 5.8 mph - 0.00 in Rain Light Rain
8:53 AM 64.0 °F 59.0 °F 84% 29.90 in 10.0 mi East 8.1 mph - 0.01 in Rain Light Rain
10:53 AM 66.9 °F 57.9 °F 73% 29.91 in 10.0 mi ESE 8.1 mph - N/A   Overcast
12:53 PM 68.0 °F 63.0 °F 84% 29.89 in 5.0 mi ESE 6.9 mph - 0.03 in Rain Light Rain
4:53 PM 69.1 °F 61.0 °F 75% 29.82 in 10.0 mi ENE 10.4 mph - N/A   Overcast
5:53 PM 66.9 °F 63.0 °F 87% 29.80 in 6.0 mi ENE 10.4 mph - 0.01 in Rain Light Rain
6:37 PM 66.0 °F 64.0 °F 93% 29.81 in 2.0 mi ENE 9.2 mph - 0.07 in Rain Rain
6:50 PM 66.2 °F 64.4 °F 94% 29.80 in 4.0 mi NE 8.1 mph - 0.07 in Rain Light Rain
6:53 PM 66.0 °F 64.0 °F 93% 29.80 in 5.0 mi NE 8.1 mph - 0.08 in Rain Light Rain
7:44 PM 66.0 °F 64.0 °F 93% 29.80 in 2.0 mi ENE 6.9 mph - 0.07 in Rain Rain
7:53 PM 66.0 °F 64.0 °F 93% 29.79 in 2.0 mi NE 8.1 mph - 0.08 in Rain Light Rain
8:15 PM 66.0 °F 64.0 °F 93% 29.79 in 4.0 mi ENE 9.2 mph - 0.03 in Rain Light Rain
8:53 PM 64.9 °F 64.0 °F 97% 29.78 in 4.0 mi East 10.4 mph - 0.05 in Rain Light Rain
9:03 PM 64.9 °F 64.0 °F 97% 29.78 in 4.0 mi East 10.4 mph - 0.01 in Rain Light Rain
10:31 PM 64.9 °F 64.0 °F 97% 29.76 in 5.0 mi East 12.7 mph - 0.08 in Rain Light Rain
10:53 PM 64.9 °F 64.0 °F 97% 29.75 in 5.0 mi East 12.7 mph - 0.11 in Rain Light Rain
11:53 PM 64.9 °F 63.0 °F 93% 29.73 in 5.0 mi East 15.0 mph - 0.05 in Rain Rain